Weather History for Soldotna, AK

Change the Weather History Date:

Friday, September 13, 2013

  Actual Average Record
Temperature  
Mean Temperature 54 °F -  
Max Temperature 60 °F 55 °F 66 °F (1997)
Min Temperature 48 °F 41 °F 27 °F (1954)
Degree Days  
Heating Degree Days 11    
Growing Degree Days 4 (Base 50)    
Moisture  
Dew Point 45 °F    
Average Humidity 73    
Maximum Humidity 87    
Minimum Humidity 55    
Precipitation  
Precipitation 0.00 in - - ()
Sea Level Pressure  
Sea Level Pressure 29.87 in    
Wind  
Wind Speed 6 mph (NE)    
Max Wind Speed 14 mph    
Max Gust Speed 17 mph    
Visibility 10 miles    
Events      
Averages and records for this station are not official NWS values.
T = Trace of Precipitation, MM = Missing Value Source: NWS Daily Summary

Daily Weather History Graph

Daily Weather History Graph

Search for Another Location

Airport:

Trip Planner

Search our weather history database for the weather conditions in past years. The results will help you decide how hot, cold, wet, or windy it might be!

Date:

Astronomy

Sep. 13, 2013 Rise Set
Actual Time 7:27 AM AKDT 8:30 PM AKDT
Civil Twilight 6:44 AM AKDT 9:13 PM AKDT
Nautical Twilight 5:51 AM AKDT 10:06 PM AKDT
Astronomical Twilight 4:49 AM AKDT 11:07 PM AKDT
Moon 5:38 PM AKDT (9/13) No Moon Set
Length of Visible Light 14h 28m
Length of Day
13h 02m
Waxing Gibbous, 63% of the Moon is Illuminated
Sep 13
Waxing Gibbous
Sep 19
Full
Sep 26
Last Quarter
Oct 4
New
Oct 11
First Quarter

Hourly Weather History & Observations

Time (AKDT) Temp. Dew Point Humidity Pressure Visibility Wind Dir Wind Speed Gust Speed Precip Events Conditions
12:16 AM 50.0 °F 44.6 °F 82% 29.87 in 10.0 mi ENE 5.8 mph - N/A   Overcast
12:36 AM 50.0 °F 44.6 °F 82% 29.87 in 10.0 mi ENE 5.8 mph - N/A   Overcast
12:56 AM 50.0 °F 44.6 °F 82% 29.87 in 10.0 mi East 4.6 mph - N/A   Overcast
1:16 AM 50.0 °F 44.6 °F 82% 29.87 in 10.0 mi ENE 4.6 mph - N/A   Overcast
1:36 AM 50.0 °F 42.8 °F 76% 29.87 in 10.0 mi East 3.5 mph - N/A   Overcast
1:56 AM 48.2 °F 42.8 °F 82% 29.87 in 10.0 mi Calm Calm - N/A   Overcast
2:16 AM 50.0 °F 44.6 °F 82% 29.86 in 10.0 mi NNE 4.6 mph - N/A   Overcast
2:36 AM 48.2 °F 44.6 °F 87% 29.86 in 10.0 mi Calm Calm - N/A   Overcast
2:56 AM 48.2 °F 44.6 °F 87% 29.86 in 10.0 mi Calm Calm - N/A   Overcast
3:16 AM 48.2 °F 44.6 °F 87% 29.85 in 10.0 mi Calm Calm - N/A   Overcast
3:36 AM 48.2 °F 44.6 °F 87% 29.85 in 10.0 mi North 4.6 mph - N/A   Mostly Cloudy
3:56 AM 48.2 °F 44.6 °F 87% 29.85 in 10.0 mi Calm Calm - N/A   Overcast
4:16 AM 48.2 °F 44.6 °F 87% 29.85 in 10.0 mi NNE 3.5 mph - N/A   Overcast
4:36 AM 50.0 °F 44.6 °F 82% 29.84 in 10.0 mi NE 3.5 mph - N/A   Overcast
4:56 AM 50.0 °F 42.8 °F 76% 29.84 in 10.0 mi ENE 5.8 mph - N/A   Overcast
5:16 AM 51.8 °F 44.6 °F 76% 29.84 in 10.0 mi ENE 8.1 mph - N/A   Overcast
5:36 AM 51.8 °F 42.8 °F 71% 29.84 in 10.0 mi ENE 8.1 mph - N/A   Mostly Cloudy
5:56 AM 51.8 °F 42.8 °F 71% 29.84 in 10.0 mi NE 8.1 mph - N/A   Scattered Clouds
6:16 AM 50.0 °F 44.6 °F 82% 29.84 in 10.0 mi NE 9.2 mph - N/A   Mostly Cloudy
6:36 AM 50.0 °F 44.6 °F 82% 29.84 in 10.0 mi NE 10.4 mph - N/A   Partly Cloudy
6:56 AM 50.0 °F 44.6 °F 82% 29.84 in 10.0 mi ENE 8.1 mph - N/A   Scattered Clouds
7:16 AM 50.0 °F 44.6 °F 82% 29.84 in 10.0 mi Calm Calm - N/A   Scattered Clouds
7:36 AM 48.2 °F 42.8 °F 82% 29.84 in 10.0 mi Calm Calm - N/A   Partly Cloudy
7:56 AM 50.0 °F 44.6 °F 82% 29.84 in 10.0 mi NE 6.9 mph - N/A   Scattered Clouds
8:16 AM 50.0 °F 44.6 °F 82% 29.84 in 10.0 mi NE 6.9 mph - N/A   Mostly Cloudy
8:36 AM 51.8 °F 44.6 °F 76% 29.84 in 10.0 mi NNE 5.8 mph - N/A   Scattered Clouds
8:56 AM 51.8 °F 44.6 °F 76% 29.85 in 10.0 mi NE 8.1 mph - N/A   Mostly Cloudy
9:16 AM 51.8 °F 44.6 °F 76% 29.85 in 10.0 mi NE 9.2 mph - N/A   Overcast
9:36 AM 51.8 °F 44.6 °F 76% 29.85 in 10.0 mi NE 9.2 mph - N/A   Overcast
9:56 AM 53.6 °F 44.6 °F 72% 29.85 in 10.0 mi NE 6.9 mph - N/A   Overcast
10:16 AM 53.6 °F 44.6 °F 72% 29.86 in 10.0 mi NE 6.9 mph - N/A   Overcast
10:36 AM 55.4 °F 44.6 °F 67% 29.86 in 10.0 mi NNE 5.8 mph - N/A   Overcast
10:56 AM 55.4 °F 44.6 °F 67% 29.86 in 10.0 mi NE 5.8 mph - N/A   Mostly Cloudy
11:16 AM 55.4 °F 46.4 °F 72% 29.86 in 10.0 mi NE 6.9 mph - N/A   Overcast
11:36 AM 57.2 °F 46.4 °F 67% 29.86 in 10.0 mi NNE 5.8 mph - N/A   Overcast
11:56 AM 57.2 °F 46.4 °F 67% 29.87 in 10.0 mi NE 9.2 mph - N/A   Overcast
12:16 PM 57.2 °F 46.4 °F 67% 29.87 in 10.0 mi ENE 10.4 mph - N/A   Overcast
12:36 PM 60.8 °F 44.6 °F 55% 29.87 in 10.0 mi ENE 12.7 mph - N/A   Mostly Cloudy
12:56 PM 60.8 °F 44.6 °F 55% 29.87 in 10.0 mi ENE 13.8 mph 17.3 mph N/A   Partly Cloudy
1:16 PM 59.0 °F 46.4 °F 63% 29.87 in 10.0 mi ENE 13.8 mph - N/A   Mostly Cloudy
1:36 PM 59.0 °F 44.6 °F 59% 29.87 in 10.0 mi East 6.9 mph - N/A   Overcast
1:56 PM 59.0 °F 44.6 °F 59% 29.88 in 10.0 mi East 6.9 mph - N/A   Overcast
2:16 PM 59.0 °F 46.4 °F 63% 29.88 in 10.0 mi ENE 6.9 mph - N/A   Overcast
2:36 PM 59.0 °F 46.4 °F 63% 29.88 in 10.0 mi East 5.8 mph - N/A   Overcast
2:56 PM 60.8 °F 44.6 °F 55% 29.88 in 10.0 mi East 9.2 mph - N/A   Overcast
3:16 PM 60.8 °F 46.4 °F 59% 29.87 in 10.0 mi East 9.2 mph - N/A   Mostly Cloudy
3:36 PM 60.8 °F 46.4 °F 59% 29.87 in 10.0 mi NE 12.7 mph 16.1 mph N/A   Overcast
3:56 PM 60.8 °F 46.4 °F 59% 29.87 in 10.0 mi ENE 8.1 mph - N/A   Overcast
4:16 PM 60.8 °F 44.6 °F 55% 29.87 in 10.0 mi NE 8.1 mph - N/A   Overcast
4:36 PM 60.8 °F 46.4 °F 59% 29.87 in 10.0 mi NE 6.9 mph - N/A   Overcast
4:56 PM 60.8 °F 46.4 °F 59% 29.87 in 10.0 mi ENE 9.2 mph - N/A   Overcast
5:16 PM 59.0 °F 46.4 °F 63% 29.87 in 10.0 mi NE 6.9 mph - N/A   Mostly Cloudy
5:36 PM 60.8 °F 46.4 °F 59% 29.87 in 10.0 mi NE 6.9 mph - N/A   Overcast
5:56 PM 60.8 °F 46.4 °F 59% 29.87 in 10.0 mi NE 6.9 mph - N/A   Overcast
6:16 PM 59.0 °F 46.4 °F 63% 29.87 in 10.0 mi NNE 5.8 mph - N/A   Overcast
6:36 PM 59.0 °F 46.4 °F 63% 29.87 in 10.0 mi NNE 4.6 mph - N/A   Overcast
6:56 PM 57.2 °F 46.4 °F 67% 29.87 in 10.0 mi NE 3.5 mph - N/A   Mostly Cloudy
7:16 PM 57.2 °F 46.4 °F 67% 29.88 in 10.0 mi NE 5.8 mph - N/A   Mostly Cloudy
7:36 PM 57.2 °F 46.4 °F 67% 29.88 in 10.0 mi NNE 4.6 mph - N/A   Mostly Cloudy
7:56 PM 55.4 °F 46.4 °F 72% 29.87 in 10.0 mi NNE 3.5 mph - N/A   Partly Cloudy
8:16 PM 55.4 °F 46.4 °F 72% 29.88 in 10.0 mi NE 4.6 mph - N/A   Partly Cloudy
8:36 PM 53.6 °F 46.4 °F 77% 29.89 in 10.0 mi NNE 4.6 mph - N/A   Scattered Clouds
8:56 PM 53.6 °F 46.4 °F 77% 29.89 in 10.0 mi NE 6.9 mph - N/A   Scattered Clouds
9:16 PM 53.6 °F 46.4 °F 77% 29.89 in 10.0 mi NNE 3.5 mph - N/A   Overcast
9:36 PM 51.8 °F 46.4 °F 82% 29.90 in 10.0 mi NNE 3.5 mph - N/A   Overcast
9:56 PM 51.8 °F 46.4 °F 82% 29.90 in 10.0 mi ENE 4.6 mph - N/A   Overcast
10:16 PM 51.8 °F 46.4 °F 82% 29.90 in 10.0 mi ENE 5.8 mph - N/A   Overcast
10:36 PM 51.8 °F 44.6 °F 76% 29.90 in 10.0 mi ENE 3.5 mph - N/A   Overcast
10:56 PM 51.8 °F 46.4 °F 82% 29.91 in 10.0 mi ENE 4.6 mph - N/A   Overcast
11:16 PM 51.8 °F 46.4 °F 82% 29.91 in 10.0 mi Calm Calm - N/A   Overcast
11:36 PM 51.8 °F 46.4 °F 82% 29.91 in 10.0 mi ENE 5.8 mph - N/A   Overcast
11:56 PM 51.8 °F 46.4 °F 82% 29.91 in 10.0 mi NE 4.6 mph - N/A   Overcast